Weather History for Ellsworth AFB, SD

Change the Weather History Date:

Wednesday, October 16, 2013

  Actual Average Record
Temperature  
Mean Temperature 41 °F -  
Max Temperature 54 °F 59 °F 72 °F (2012)
Min Temperature 28 °F 35 °F 24 °F (1999)
Degree Days  
Heating Degree Days 24    
Moisture  
Dew Point 25 °F    
Average Humidity 58    
Maximum Humidity 82    
Minimum Humidity 29    
Precipitation  
Precipitation 0.00 in - - ()
Sea Level Pressure  
Sea Level Pressure 30.07 in    
Wind  
Wind Speed 7 mph (WNW)    
Max Wind Speed 17 mph    
Max Gust Speed -    
Visibility 10 miles    
Events      
Averages and records for this station are not official NWS values.
T = Trace of Precipitation, MM = Missing Value Source: NWS Daily Summary

Daily Weather History Graph

Daily Weather History Graph

Search for Another Location

Airport:

Trip Planner

Search our weather history database for the weather conditions in past years. The results will help you decide how hot, cold, wet, or windy it might be!

Date:

Astronomy

Oct. 16, 2013 Rise Set
Actual Time 7:08 AM MDT 6:06 PM MDT
Civil Twilight 6:39 AM MDT 6:35 PM MDT
Nautical Twilight 6:06 AM MDT 7:08 PM MDT
Astronomical Twilight 5:32 AM MDT 7:42 PM MDT
Moon 4:50 PM MDT (10/16) 4:34 AM MDT (10/16)
Length of Visible Light 11h 55m
Length of Day
10h 57m
Waxing Gibbous, 94% of the Moon is Illuminated
Oct 16
Waxing Gibbous
Oct 18
Full
Oct 26
Last Quarter
Nov 3
New
Nov 9
First Quarter

Hourly Weather History & Observations

Time (MDT) Temp. Windchill Dew Point Humidity Pressure Visibility Wind Dir Wind Speed Gust Speed Precip Events Conditions
12:58 AM 30.6 °F 24.7 °F 25.5 °F 82% 30.21 in 10.0 mi West 5.8 mph - N/A   Partly Cloudy
1:58 AM 31.3 °F 25.6 °F 25.2 °F 78% 30.19 in 10.0 mi West 5.8 mph - N/A   Clear
2:58 AM 31.8 °F 26.2 °F 24.4 °F 74% 30.17 in 10.0 mi West 5.8 mph - N/A   Clear
3:58 AM 30.0 °F 24.1 °F 23.9 °F 78% 30.15 in 10.0 mi West 5.8 mph - N/A   Clear
4:58 AM 29.7 °F 22.8 °F 23.4 °F 77% 30.14 in 10.0 mi West 6.9 mph - N/A   Clear
5:58 AM 29.5 °F 23.4 °F 22.5 °F 75% 30.12 in 10.0 mi West 5.8 mph - N/A   Clear
6:58 AM 28.2 °F 21.0 °F 21.9 °F 77% 30.12 in 10.0 mi West 6.9 mph - N/A   Clear
7:58 AM 30.4 °F 25.6 °F 23.0 °F 74% 30.12 in 10.0 mi WSW 4.6 mph - N/A   Clear
8:58 AM 35.6 °F 29.9 °F 24.1 °F 63% 30.12 in 10.0 mi West 6.9 mph - N/A   Clear
9:58 AM 41.4 °F 38.4 °F 23.9 °F 50% 30.11 in 10.0 mi WSW 4.6 mph - N/A   Clear
10:58 AM 46.9 °F - 24.1 °F 41% 30.09 in 10.0 mi SSE 6.9 mph - N/A   Clear
11:58 AM 48.4 °F - 24.8 °F 40% 30.07 in 10.0 mi Variable 2.3 mph - N/A   Clear
12:17 PM 50.0 °F - 23.0 °F 35% 30.00 in 10.0 mi Variable 2.3 mph - N/A   Light Drizzle
12:27 PM 50.0 °F - 23.0 °F 35% 30.00 in 10.0 mi Variable 1.2 mph - N/A   Clear
12:58 PM 51.4 °F - 20.8 °F 30% 30.03 in 10.0 mi North 11.5 mph - 0.00 in   Clear
1:58 PM 53.1 °F - 21.7 °F 29% 30.01 in 10.0 mi North 5.8 mph - N/A   Clear
2:58 PM 54.5 °F - 23.4 °F 30% 29.98 in 10.0 mi North 10.4 mph - N/A   Clear
3:58 PM 54.9 °F - 23.9 °F 30% 29.98 in 10.0 mi North 15.0 mph - N/A   Clear
4:58 PM 53.8 °F - 27.0 °F 36% 29.98 in 10.0 mi North 10.4 mph - N/A   Clear
6:58 PM 40.8 °F 34.5 °F 31.5 °F 69% 30.02 in 10.0 mi WNW 10.4 mph - N/A   Clear
7:58 PM 39.7 °F 33.7 °F 29.5 °F 67% 30.02 in 10.0 mi WNW 9.2 mph - N/A   Clear
8:56 PM 39.2 °F 33.0 °F 30.2 °F 70% 29.95 in 10.0 mi WNW 9.2 mph - N/A   Partly Cloudy
9:58 PM 36.5 °F 29.2 °F 29.7 °F 76% 30.03 in 10.0 mi NW 10.4 mph - N/A   Clear
10:58 PM 41.9 °F 34.0 °F 30.0 °F 63% 30.01 in 10.0 mi NNW 16.1 mph - N/A   Clear
11:58 PM 41.4 °F 33.0 °F 31.3 °F 67% 30.01 in 10.0 mi NW 17.3 mph - N/A   Clear